SCP
0 0 0 0 0 0 0 0 0 0 0 0 0 0 0 0 0 0 0 0 0 0 0 0 0 0 0 0 0 0 0 0
0 -0 -0 -0 -0 -0 -0 0 0 0 0 0 0 0 0 0 0 0 0 0 0 0 0 0 0 0 0 0 0 0 0 0
-0 -0 -0 -0 -0 -0 0 0 0 0 0 0 0 0 0 0 0 0 0 0 0 0 0 0 0 0 0 0 0 0 0 0
0 0 0 0 0 0 0 0 0 0 0 0 0 0 0 0 0 0 0 0 0 0 0 0 0 0 0 0 0 0 0 0
0 0 0 0 0 0 0 0 0 0 0 0 0 0 0 0 0 0 0 0 0 0 0 0 0 0 0 0 0 0 0 0
0 0 0 0 0 0 0 0 0 0 0 0 0 0 0 0 0 0 0 0 0 0 0 0 0 0 0 0 0 0 0 0
0 0 0 0 0 0 0 0 0 0 0 0 0 0 0 0 0 0 0 0 0 0 0 0 0 0 0 0 0 0 0 0
0 0 0 0 0 0 0 0 0 0 0 0 0 0 0 0 0 0 0 0 0 0 0 0 0 0 0 0 0 0 0 0
0 0 0 0 0 0 0 0 0 0 0 0 0 0 0 0 0 0 0 0 0 0 0 0 0 0 0 0 0 0 0 0
0 0 0 0 0 0 0 0 0 0 0 0 0 0 0 0 0 0 0 0 0 0 0 0 0 0 0 0 0 0 0 0
0 0 0 0 0 0 0 0 0 0 0 0 0 0 0 0 0 0 0 0 0 0 0 0 0 0 0 0 0 0 0 0
-0 -0 0 -0 0 0 0 0 0 0 0 0 0 0 0 0 0 0 0 0 0 0 0 0 0 0 0 0 0 0 0 0
-0 -0 0 -0 -0 0 0 0 0 0 0 0 0 0 0 0 0 0 0 0 0 0 0 0 0 0 0 0 0 0 0 0
-0 -0 -0 -0 -0 -0 0 0 0 0 0 0 0 0 0 0 0 0 0 0 0 0 0 0 0 0 0 0 0 0 0 0
-0 -0 -0 -0 0 0 0 0 0 0 0 0 0 0 0 0 0 0 0 0 0 0 0 0 0 0 0 0 0 0 0 0
-0 -0 -0 0 0 0 0 0 0 0 0 0 0 0 0 0 0 0 0 0 0 0 0 0 0 0 0 0 0 0 0 0
0 0 0 0 0 0 0 0 0 0 0 0 0 0 0 0 0 0 0 0 0 0 0 0 0 0 0 0 0 0 0 0
0 0 0 0 0 0 0 0 0 0 0 0 0 0 0 0 0 0 0 0 0 0 0 0 0 0 0 0 0 0 0 0
0 0 0 0 0 0 0 0 0 0 0 0 0 0 0 0 0 0 0 0 0 0 0 0 0 0 0 0 0 0 0 0
0 0 0 0 0 0 0 0 0 0 0 0 0 0 0 0 0 0 0 0 0 0 0 0 0 0 0 0 0 0 0 0
Wind_Speed_500mb
35 36 41 48 52 49 46 38 39 47 53 56 62 67 73 77 77 76 79 80 84 84 83 78 73 66 64 68 71 76 77 76
42 41 50 55 58 54 51 46 40 38 47 57 59 58 60 63 68 69 72 72 75 74 74 75 74 67 64 63 63 69 70 70
42 47 49 51 54 51 55 54 42 38 39 44 54 57 57 58 59 60 62 69 73 70 69 68 69 63 66 67 66 66 68 68
52 54 56 58 58 55 53 50 46 39 33 37 43 49 53 53 53 56 56 58 63 64 69 71 68 67 68 70 68 67 68 67
63 62 63 66 65 63 53 50 50 38 32 32 32 36 39 43 47 47 49 53 56 59 62 66 64 63 64 66 65 65 64 62
57 65 80 77 77 69 61 52 51 51 40 30 26 28 32 35 38 43 48 51 51 52 55 57 57 59 59 61 62 62 62 62
63 76 83 84 78 69 67 59 56 53 55 48 41 35 34 36 36 38 41 44 48 52 54 55 57 60 61 61 62 61 58 58
56 66 82 89 87 74 68 68 64 57 58 60 56 50 44 42 43 42 45 47 49 49 50 52 53 57 57 57 56 56 51 54
69 78 82 88 90 79 65 68 65 65 62 65 65 60 55 49 48 46 46 48 49 50 53 55 54 53 49 48 50 52 53 51
76 84 92 91 89 87 70 63 68 61 64 67 71 66 60 54 49 50 47 47 46 45 45 43 42 44 42 41 44 41 43 42
85 90 91 89 84 82 71 66 60 60 62 66 70 64 57 53 51 50 45 43 41 39 36 33 31 29 31 32 36 38 40 40
80 89 91 90 81 77 70 63 57 56 56 58 60 57 54 51 48 45 41 39 37 33 30 28 29 28 27 24 23 23 25 26
87 92 90 86 78 74 66 62 57 51 53 52 52 52 49 46 41 36 33 33 30 28 28 28 27 21 20 19 20 17 18 20
91 95 91 78 73 71 64 58 56 50 48 47 45 45 43 39 34 33 31 30 30 29 26 23 22 19 18 18 17 16 15 14
90 89 89 78 68 64 62 55 50 47 41 37 35 35 35 35 34 34 34 32 29 28 26 25 23 20 19 19 17 17 19 16
81 81 79 75 67 60 57 51 44 39 35 34 33 33 35 37 36 37 35 33 31 29 27 26 24 21 20 19 17 14 16 17
68 69 69 65 61 54 48 45 39 35 33 35 35 36 37 38 38 36 31 29 28 26 27 26 24 22 20 18 18 18 19 18
55 56 57 56 52 46 41 36 33 31 31 34 35 37 37 36 34 33 28 26 27 25 24 22 20 20 21 21 19 19 17 15
40 42 43 42 41 37 31 26 23 22 27 33 36 35 35 34 31 27 24 22 23 24 25 23 19 20 12 10 11 14 12 11
28 30 30 30 27 23 19 13 9 11 16 22 26 28 27 24 22 22 26 27 24 19 13 18 21 23 22 18 9 7 7 8
Wind_Direction_500mb
342 342 352 354 347 343 332 306 280 261 254 247 245 249 250 250 244 245 249 250 253 255 259 260 258 253 251 251 254 255 258 260
337 341 336 337 335 336 335 318 293 276 264 256 254 250 249 251 253 248 247 248 249 254 255 255 255 252 247 249 251 252 254 256
338 338 336 333 327 326 329 329 303 288 272 263 258 257 255 252 254 251 249 249 250 249 247 247 253 249 245 246 248 248 249 251
342 338 336 330 326 324 321 320 320 292 281 267 260 255 255 255 252 251 248 245 246 245 246 248 245 250 248 247 247 248 249 251
340 339 337 334 330 324 313 315 309 312 289 274 263 259 255 254 253 251 250 247 247 249 248 248 252 251 254 252 251 250 252 253
340 335 337 333 334 323 318 306 303 298 295 290 279 270 263 261 263 261 256 253 251 252 252 253 253 253 253 254 254 255 257 258
331 333 335 336 326 320 316 314 299 293 287 284 282 276 273 271 268 269 270 268 258 254 254 255 255 255 255 256 258 262 260 262
329 328 330 334 333 315 307 300 302 288 281 278 277 277 275 274 272 270 269 266 263 260 255 252 251 252 253 254 256 256 253 255
326 328 331 335 334 324 307 293 293 283 277 274 272 274 276 276 276 274 272 268 265 262 259 256 252 250 248 245 246 252 255 257
323 324 325 329 325 326 313 299 293 285 275 272 268 269 273 274 274 273 272 270 267 263 259 256 255 252 247 245 244 243 246 247
322 321 322 326 323 320 318 306 295 286 275 268 263 263 266 268 267 269 269 268 264 259 256 249 246 242 240 242 244 241 238 243
319 319 320 323 323 320 318 312 301 290 278 268 264 264 264 262 261 262 260 258 255 249 242 236 235 238 235 232 237 237 234 222
320 316 316 318 320 316 314 310 303 292 282 272 266 263 261 260 259 255 250 250 236 225 226 228 234 229 228 229 231 235 222 227
316 316 316 316 316 311 309 307 302 293 282 273 265 260 256 253 247 237 231 225 221 225 226 223 221 222 220 218 222 217 220 220
315 315 313 315 311 307 304 302 296 290 282 274 262 253 246 238 229 228 226 220 220 221 221 219 216 214 211 209 212 217 220 220
314 313 312 312 309 304 300 297 291 281 274 265 252 242 236 225 220 219 220 219 220 225 229 225 219 214 212 205 203 207 217 214
316 313 313 311 308 303 295 292 287 272 263 254 244 231 225 221 216 210 213 215 218 220 223 219 217 216 214 213 212 218 226 217
322 321 319 317 312 305 297 286 277 263 250 243 232 221 215 213 212 208 201 204 200 203 210 214 203 210 208 212 201 198 203 213
331 332 328 324 318 315 307 289 268 252 240 229 216 209 205 203 200 186 170 167 168 190 180 166 165 160 155 162 138 129 146 163
341 347 348 344 341 342 333 317 275 234 204 200 198 188 186 178 167 145 140 138 135 138 144 173 173 175 176 185 175 157 162 174
Wind_Speed_850mb
35 36 41 48 52 49 46 38 39 47 53 56 62 67 73 77 77 76 79 80 84 84 83 78 73 66 64 68 71 76 77 76
42 41 50 55 58 54 51 46 40 38 47 57 59 58 60 63 68 69 72 72 75 74 74 75 74 67 64 63 63 69 70 70
42 47 49 51 54 51 55 54 42 38 39 44 54 57 57 58 59 60 62 69 73 70 69 68 69 63 66 67 66 66 68 68
52 54 56 58 58 55 53 50 46 39 33 37 43 49 53 53 53 56 56 58 63 64 69 71 68 67 68 70 68 67 68 67
63 62 63 66 65 63 53 50 50 38 32 32 32 36 39 43 47 47 49 53 56 59 62 66 64 63 64 66 65 65 64 62
57 65 80 77 77 69 61 52 51 51 40 30 26 28 32 35 38 43 48 51 51 52 55 57 57 59 59 61 62 62 62 62
63 76 83 84 78 69 67 59 56 53 55 48 41 35 34 36 36 38 41 44 48 52 54 55 57 60 61 61 62 61 58 58
56 66 82 89 87 74 68 68 64 57 58 60 56 50 44 42 43 42 45 47 49 49 50 52 53 57 57 57 56 56 51 54
69 78 82 88 90 79 65 68 65 65 62 65 65 60 55 49 48 46 46 48 49 50 53 55 54 53 49 48 50 52 53 51
76 84 92 91 89 87 70 63 68 61 64 67 71 66 60 54 49 50 47 47 46 45 45 43 42 44 42 41 44 41 43 42
85 90 91 89 84 82 71 66 60 60 62 66 70 64 57 53 51 50 45 43 41 39 36 33 31 29 31 32 36 38 40 40
80 89 91 90 81 77 70 63 57 56 56 58 60 57 54 51 48 45 41 39 37 33 30 28 29 28 27 24 23 23 25 26
87 92 90 86 78 74 66 62 57 51 53 52 52 52 49 46 41 36 33 33 30 28 28 28 27 21 20 19 20 17 18 20
91 95 91 78 73 71 64 58 56 50 48 47 45 45 43 39 34 33 31 30 30 29 26 23 22 19 18 18 17 16 15 14
90 89 89 78 68 64 62 55 50 47 41 37 35 35 35 35 34 34 34 32 29 28 26 25 23 20 19 19 17 17 19 16
81 81 79 75 67 60 57 51 44 39 35 34 33 33 35 37 36 37 35 33 31 29 27 26 24 21 20 19 17 14 16 17
68 69 69 65 61 54 48 45 39 35 33 35 35 36 37 38 38 36 31 29 28 26 27 26 24 22 20 18 18 18 19 18
55 56 57 56 52 46 41 36 33 31 31 34 35 37 37 36 34 33 28 26 27 25 24 22 20 20 21 21 19 19 17 15
40 42 43 42 41 37 31 26 23 22 27 33 36 35 35 34 31 27 24 22 23 24 25 23 19 20 12 10 11 14 12 11
28 30 30 30 27 23 19 13 9 11 16 22 26 28 27 24 22 22 26 27 24 19 13 18 21 23 22 18 9 7 7 8
Wind_Direction_850mb
342 342 352 354 347 343 332 306 280 261 254 247 245 249 250 250 244 245 249 250 253 255 259 260 258 253 251 251 254 255 258 260
337 341 336 337 335 336 335 318 293 276 264 256 254 250 249 251 253 248 247 248 249 254 255 255 255 252 247 249 251 252 254 256
338 338 336 333 327 326 329 329 303 288 272 263 258 257 255 252 254 251 249 249 250 249 247 247 253 249 245 246 248 248 249 251
342 338 336 330 326 324 321 320 320 292 281 267 260 255 255 255 252 251 248 245 246 245 246 248 245 250 248 247 247 248 249 251
340 339 337 334 330 324 313 315 309 312 289 274 263 259 255 254 253 251 250 247 247 249 248 248 252 251 254 252 251 250 252 253
340 335 337 333 334 323 318 306 303 298 295 290 279 270 263 261 263 261 256 253 251 252 252 253 253 253 253 254 254 255 257 258
331 333 335 336 326 320 316 314 299 293 287 284 282 276 273 271 268 269 270 268 258 254 254 255 255 255 255 256 258 262 260 262
329 328 330 334 333 315 307 300 302 288 281 278 277 277 275 274 272 270 269 266 263 260 255 252 251 252 253 254 256 256 253 255
326 328 331 335 334 324 307 293 293 283 277 274 272 274 276 276 276 274 272 268 265 262 259 256 252 250 248 245 246 252 255 257
323 324 325 329 325 326 313 299 293 285 275 272 268 269 273 274 274 273 272 270 267 263 259 256 255 252 247 245 244 243 246 247
322 321 322 326 323 320 318 306 295 286 275 268 263 263 266 268 267 269 269 268 264 259 256 249 246 242 240 242 244 241 238 243
319 319 320 323 323 320 318 312 301 290 278 268 264 264 264 262 261 262 260 258 255 249 242 236 235 238 235 232 237 237 234 222
320 316 316 318 320 316 314 310 303 292 282 272 266 263 261 260 259 255 250 250 236 225 226 228 234 229 228 229 231 235 222 227
316 316 316 316 316 311 309 307 302 293 282 273 265 260 256 253 247 237 231 225 221 225 226 223 221 222 220 218 222 217 220 220
315 315 313 315 311 307 304 302 296 290 282 274 262 253 246 238 229 228 226 220 220 221 221 219 216 214 211 209 212 217 220 220
314 313 312 312 309 304 300 297 291 281 274 265 252 242 236 225 220 219 220 219 220 225 229 225 219 214 212 205 203 207 217 214
316 313 313 311 308 303 295 292 287 272 263 254 244 231 225 221 216 210 213 215 218 220 223 219 217 216 214 213 212 218 226 217
322 321 319 317 312 305 297 286 277 263 250 243 232 221 215 213 212 208 201 204 200 203 210 214 203 210 208 212 201 198 203 213
331 332 328 324 318 315 307 289 268 252 240 229 216 209 205 203 200 186 170 167 168 190 180 166 165 160 155 162 138 129 146 163
341 347 348 344 341 342 333 317 275 234 204 200 198 188 186 178 167 145 140 138 135 138 144 173 173 175 176 185 175 157 162 174